• In Uzbekistan
  • List of Countries
  • For 7 days
  • Water Temperature
  • Weather Map
  • Weather Widgets
  • user-avatar
    Login

    Hourly Weather Artashat

    Today, 22 September, Sunday

    Time Temperature Precipitation Wind Pressure Humidity
    00:00 +7°C° 0 mm 5 mps 599 mmHg 54%
    01:00 +6°C° 0 mm 5 mps 599 mmHg 54%
    02:00 +6°C° 0 mm 4 mps 599 mmHg 54%
    03:00 +5°C° 0 mm 4 mps 599 mmHg 55%
    04:00 +4°C° 0 mm 4 mps 599 mmHg 55%
    05:00 +4°C° 0 mm 3 mps 600 mmHg 56%
    06:00 +5°C° 0 mm 2 mps 600 mmHg 57%
    07:00 +6°C° 0 mm 2 mps 601 mmHg 51%
    08:00 +7°C° 0 mm 2 mps 602 mmHg 46%
    09:00 +9°C° 0 mm 3 mps 603 mmHg 40%
    10:00 +10°C° 0 mm 3 mps 603 mmHg 36%
    11:00 +11°C° 0 mm 3 mps 604 mmHg 32%
    12:00 +12°C° 0 mm 3 mps 604 mmHg 28%
    13:00 +13°C° 0 mm 3 mps 604 mmHg 27%
    14:00 +14°C° 0 mm 3 mps 604 mmHg 26%
    15:00 +14°C° 0 mm 3 mps 604 mmHg 25%
    16:00 +13°C° 0 mm 3 mps 603 mmHg 26%
    17:00 +13°C° 0 mm 2 mps 603 mmHg 28%
    18:00 +13°C° 0 mm 1 mps 602 mmHg 29%
    19:00 +12°C° 0 mm 1 mps 602 mmHg 31%
    20:00 +11°C° 0 mm 1 mps 603 mmHg 32%
    21:00 +9°C° 0 mm 0 mps 603 mmHg 34%
    22:00 +9°C° 0 mm 0 mps 602 mmHg 35%
    23:00 +8°C° 0 mm 0 mps 602 mmHg 36%

    Tomorrow, 23 September, Monday

    Time Temperature Precipitation Wind Pressure Humidity
    00:00 +8°C° 0 mm 0 mps 602 mmHg 38%
    01:00 +7°C° 0 mm 0 mps 601 mmHg 40%
    02:00 +7°C° 0 mm 0 mps 601 mmHg 42%
    03:00 +6°C° 0 mm 0 mps 601 mmHg 44%
    04:00 +6°C° 0 mm 0 mps 601 mmHg 46%
    05:00 +6°C° 0 mm 0 mps 600 mmHg 48%
    06:00 +5°C° 0 mm 0 mps 600 mmHg 50%
    07:00 +7°C° 0 mm 0 mps 601 mmHg 45%
    08:00 +10°C° 0 mm 1 mps 602 mmHg 41%
    09:00 +12°C° 0 mm 1 mps 603 mmHg 37%
    10:00 +14°C° 0 mm 1 mps 603 mmHg 35%
    11:00 +15°C° 0 mm 2 mps 603 mmHg 32%
    12:00 +17°C° 0 mm 2 mps 603 mmHg 30%
    13:00 +17°C° 0 mm 2 mps 603 mmHg 29%
    14:00 +18°C° 0 mm 2 mps 603 mmHg 28%
    15:00 +18°C° 0 mm 2 mps 602 mmHg 27%
    16:00 +17°C° 0 mm 2 mps 602 mmHg 30%
    17:00 +16°C° 0 mm 1 mps 602 mmHg 33%
    18:00 +15°C° 0 mm 1 mps 601 mmHg 36%
    19:00 +14°C° 0 mm 1 mps 601 mmHg 38%
    20:00 +14°C° 0 mm 1 mps 601 mmHg 40%
    21:00 +13°C° 0 mm 1 mps 602 mmHg 42%
    22:00 +12°C° 0 mm 1 mps 601 mmHg 42%
    23:00 +11°C° 0 mm 0 mps 601 mmHg 41%

    Day after tomorrow, 24 September, Tuesday

    Time Temperature Precipitation Wind Pressure Humidity
    00:00 +10°C° 0 mm 0 mps 601 mmHg 41%
    01:00 +10°C° 0 mm 0 mps 601 mmHg 41%
    02:00 +9°C° 0 mm 0 mps 601 mmHg 41%
    03:00 +9°C° 0 mm 0 mps 601 mmHg 42%
    04:00 +8°C° 0 mm 0 mps 600 mmHg 42%
    05:00 +8°C° 0 mm 0 mps 600 mmHg 42%
    06:00 +7°C° 0 mm 0 mps 600 mmHg 43%
    07:00 +9°C° 0 mm 0 mps 601 mmHg 37%
    08:00 +13°C° 0 mm 1 mps 603 mmHg 32%
    09:00 +15°C° 0 mm 1 mps 604 mmHg 26%
    10:00 +18°C° 0 mm 1 mps 604 mmHg 24%
    11:00 +19°C° 0 mm 1 mps 604 mmHg 21%
    12:00 +19°C° 0 mm 2 mps 605 mmHg 19%
    13:00 +20°C° 0 mm 2 mps 604 mmHg 19%
    14:00 +20°C° 0 mm 2 mps 604 mmHg 18%
    15:00 +21°C° 0 mm 2 mps 604 mmHg 17%
    16:00 +19°C° 0 mm 2 mps 603 mmHg 20%
    17:00 +18°C° 0 mm 2 mps 603 mmHg 23%
    18:00 +16°C° 0 mm 2 mps 602 mmHg 26%
    19:00 +16°C° 0 mm 1 mps 602 mmHg 27%
    20:00 +15°C° 0 mm 1 mps 602 mmHg 28%
    21:00 +14°C° 0 mm 1 mps 602 mmHg 29%
    22:00 +14°C° 0 mm 1 mps 602 mmHg 29%
    23:00 +13°C° 0 mm 1 mps 602 mmHg 29%

    25 September, Wednesday

    Time Temperature Precipitation Wind Pressure Humidity
    00:00 +12°C° 0 mm 1 mps 602 mmHg 28%
    01:00 +12°C° 0 mm 1 mps 601 mmHg 28%
    02:00 +11°C° 0 mm 1 mps 601 mmHg 28%
    03:00 +11°C° 0 mm 1 mps 601 mmHg 27%
    04:00 +10°C° 0 mm 1 mps 601 mmHg 27%
    05:00 +10°C° 0 mm 1 mps 601 mmHg 27%
    06:00 +9°C° 0 mm 1 mps 600 mmHg 27%
    07:00 +12°C° 0 mm 1 mps 602 mmHg 24%
    08:00 +15°C° 0 mm 1 mps 603 mmHg 20%
    09:00 +18°C° 0 mm 1 mps 604 mmHg 17%
    10:00 +20°C° 0 mm 1 mps 604 mmHg 16%
    11:00 +20°C° 0 mm 2 mps 605 mmHg 15%
    12:00 +21°C° 0 mm 2 mps 605 mmHg 14%
    13:00 +22°C° 0 mm 3 mps 605 mmHg 14%
    14:00 +24°C° 0 mm 3 mps 605 mmHg 13%
    15:00 +24°C° 0 mm 3 mps 605 mmHg 13%
    16:00 +22°C° 0 mm 3 mps 604 mmHg 15%
    17:00 +20°C° 0 mm 3 mps 604 mmHg 17%
    18:00 +19°C° 0 mm 3 mps 604 mmHg 19%
    19:00 +18°C° 0 mm 3 mps 604 mmHg 20%
    20:00 +17°C° 0 mm 2 mps 604 mmHg 21%
    21:00 +16°C° 0 mm 2 mps 603 mmHg 23%
    22:00 +16°C° 0 mm 2 mps 603 mmHg 24%
    23:00 +16°C° 0 mm 2 mps 603 mmHg 25%

    26 September, Thursday

    Time Temperature Precipitation Wind Pressure Humidity
    00:00 +16°C° 0 mm 2 mps 603 mmHg 26%
    01:00 +15°C° 0 mm 2 mps 603 mmHg 27%
    02:00 +15°C° 0 mm 2 mps 603 mmHg 28%
    03:00 +15°C° 0 mm 1 mps 603 mmHg 29%
    04:00 +14°C° 0 mm 1 mps 603 mmHg 29%
    05:00 +14°C° 0 mm 1 mps 602 mmHg 29%
    06:00 +14°C° 0 mm 1 mps 602 mmHg 29%
    07:00 +16°C° 0 mm 2 mps 603 mmHg 26%
    08:00 +18°C° 0 mm 2 mps 604 mmHg 23%
    09:00 +20°C° 0 mm 2 mps 605 mmHg 19%
    10:00 +22°C° 0 mm 4 mps 606 mmHg 18%
    11:00 +23°C° 0 mm 5 mps 606 mmHg 16%
    12:00 +26°C° 0 mm 7 mps 606 mmHg 15%
    13:00 +26°C° 0 mm 7 mps 606 mmHg 14%
    14:00 +26°C° 0 mm 7 mps 606 mmHg 14%
    15:00 +27°C° 0 mm 7 mps 605 mmHg 13%
    16:00 +24°C° 0 mm 6 mps 605 mmHg 15%
    17:00 +22°C° 0 mm 5 mps 604 mmHg 17%
    18:00 +21°C° 0 mm 3 mps 603 mmHg 19%
    19:00 +20°C° 0 mm 3 mps 603 mmHg 20%
    20:00 +19°C° 0 mm 3 mps 603 mmHg 22%
    21:00 +18°C° 0 mm 2 mps 604 mmHg 23%
    22:00 +17°C° 0 mm 2 mps 603 mmHg 24%
    23:00 +16°C° 0 mm 2 mps 603 mmHg 26%

    27 September, Friday

    Time Temperature Precipitation Wind Pressure Humidity
    00:00 +16°C° 0 mm 2 mps 603 mmHg 27%
    01:00 +15°C° 0 mm 2 mps 603 mmHg 29%
    02:00 +14°C° 0 mm 2 mps 603 mmHg 31%
    03:00 +14°C° 0 mm 1 mps 602 mmHg 33%
    04:00 +13°C° 0 mm 1 mps 602 mmHg 35%
    05:00 +13°C° 0 mm 2 mps 602 mmHg 36%
    06:00 +13°C° 0 mm 2 mps 602 mmHg 38%
    07:00 +15°C° 0 mm 1 mps 603 mmHg 34%
    08:00 +18°C° 0 mm 1 mps 604 mmHg 30%
    09:00 +20°C° 0 mm 1 mps 605 mmHg 26%
    10:00 +21°C° 0 mm 2 mps 605 mmHg 23%
    11:00 +23°C° 0 mm 2 mps 605 mmHg 21%
    12:00 +24°C° 0 mm 3 mps 605 mmHg 19%
    13:00 +25°C° 0 mm 4 mps 605 mmHg 18%
    14:00 +25°C° 0 mm 5 mps 605 mmHg 18%
    15:00 +26°C° 0 mm 5 mps 604 mmHg 17%
    16:00 +23°C° 0 mm 5 mps 604 mmHg 20%
    17:00 +22°C° 0 mm 5 mps 603 mmHg 22%
    18:00 +20°C° 0 mm 5 mps 603 mmHg 25%
    19:00 +19°C° 0 mm 5 mps 603 mmHg 27%
    20:00 +19°C° 0 mm 5 mps 603 mmHg 29%
    21:00 +18°C° 0 mm 4 mps 604 mmHg 31%
    22:00 +17°C° 0 mm 4 mps 604 mmHg 35%
    23:00 +16°C° 0 mm 3 mps 603 mmHg 39%
    Show more